Location: Paderno d�Adda
(45.6667°N, 9.4333°E)
Time: 01:23:42
(UTC+00:00)

Resurs 01 Rocket - Pass Details

Date: 19 September 2020
Orbit: 633 x 645 km, 98.0° (Epoch: 26 October)

Event Time Altitude Azimuth Distance (km) Brightness Sun altitude
Exits shadow 21:20:27 13° 285° (WNW) 1,856 4.5 -36.8°
Drops below altitude 10° 21:21:44 10° 302° (WNW) 2,049 4.9 -36.9°
Sets 21:25:02 0° 328° (NNW) 2,964 6.0 -37.3°
